Wind_Speed
68 64 66 72 67 62 59 57 55 57 52 55 53 50 50 52 58 59 61 62 56 53 51 46 42 40 42 44 40 36 36 40 40 40 39 40 41 45 44 43 52 49 49 49
68 68 75 71 66 64 58 59 62 60 57 55 52 50 49 54 59 61 59 53 50 49 46 40 39 41 43 43 42 41 37 34 35 38 41 42 44 46 48 49 47 50 49 42
70 73 73 71 69 61 58 57 55 53 50 53 55 52 48 57 62 61 49 47 47 46 38 37 38 39 38 38 36 39 40 38 37 39 42 45 48 44 49 46 40 37 36 37
65 69 69 65 63 60 53 55 52 51 53 54 52 53 56 57 56 45 46 43 43 40 35 36 35 34 34 34 33 32 33 35 38 40 41 36 38 37 36 35 37 36 34 38
64 68 63 59 64 59 60 55 54 52 57 55 53 56 60 52 47 45 42 39 39 36 34 33 32 30 29 27 26 30 31 32 32 35 37 39 36 34 34 33 32 32 33 34
68 69 64 66 66 60 63 59 59 60 60 60 56 55 53 41 41 40 38 38 35 32 34 33 32 29 27 28 29 30 32 32 32 32 33 35 35 33 33 33 33 32 33 36
74 73 72 71 70 67 66 64 60 61 62 61 55 49 45 40 39 39 38 35 33 31 34 33 32 29 28 28 29 32 32 34 32 33 36 35 33 33 36 35 36 35 34 33
74 74 73 71 69 66 63 62 59 58 57 58 51 43 43 41 38 39 37 34 32 32 34 37 37 33 29 30 32 31 33 36 35 35 34 35 35 35 36 38 38 37 35 32
67 64 63 63 63 64 62 61 61 57 53 53 47 43 44 41 38 37 36 35 33 35 35 38 37 35 34 33 33 34 36 34 33 36 37 34 34 35 37 40 43 44 42 39
67 66 66 66 65 62 56 53 51 49 47 46 45 43 42 41 37 38 40 37 36 37 37 40 39 36 38 37 36 37 38 37 36 37 38 39 39 38 37 39 41 42 44 43
69 67 66 63 60 57 53 51 52 52 47 45 43 42 47 42 40 40 41 40 39 40 39 42 42 40 39 40 39 40 41 41 38 38 38 40 43 42 40 41 43 41 43 45
70 70 69 65 62 60 57 54 53 49 44 46 46 41 50 46 43 43 42 44 44 46 43 45 44 45 41 42 42 42 43 45 43 41 38 43 45 45 47 48 47 44 44 45
74 72 70 68 61 56 55 52 49 50 51 48 49 42 52 52 46 44 45 46 50 50 49 49 45 46 48 45 43 45 46 47 45 46 43 42 47 49 51 52 53 50 48 47
81 75 69 65 62 64 63 61 60 58 53 50 46 48 50 52 50 48 50 53 54 53 51 50 49 50 49 49 48 49 49 49 47 46 45 44 46 49 54 58 58 55 54 52
82 76 72 68 69 68 63 60 59 57 55 55 52 52 53 54 54 53 52 53 55 56 54 53 52 52 50 50 52 49 50 50 50 49 47 48 46 50 53 60 62 59 57 58
84 77 74 71 72 72 68 65 63 60 58 57 57 56 55 56 56 55 56 54 53 56 55 54 53 53 54 53 52 51 53 53 54 53 50 50 49 50 57 60 65 60 60 60
86 80 78 75 75 75 73 62 63 64 63 61 59 59 58 57 56 56 57 59 54 52 53 53 52 53 54 55 55 54 54 56 58 58 57 57 57 59 62 67 67 64 66 64
87 82 81 79 77 77 64 67 67 68 67 65 64 62 60 58 58 56 56 56 54 54 53 52 52 55 56 57 58 59 58 57 59 62 62 61 63 65 68 71 69 67 69 67
87 84 82 81 77 74 70 69 72 73 73 70 68 65 62 60 58 57 56 57 57 55 55 55 55 56 59 60 61 62 61 60 63 66 67 67 69 70 72 73 69 69 69 66
90 88 87 83 82 76 73 74 75 79 78 72 72 70 67 64 62 59 58 58 56 56 57 58 58 61 63 63 63 64 62 64 65 69 72 73 72 76 76 75 73 72 73 69
95 93 92 88 86 80 79 80 80 83 74 79 78 75 72 69 65 63 63 62 62 62 62 62 63 63 64 65 67 69 70 71 70 72 75 77 78 80 81 80 77 76 77 70
97 97 96 93 91 86 85 85 84 82 84 82 78 76 73 70 69 68 65 65 66 67 67 68 67 67 68 69 70 71 74 75 76 76 79 80 81 85 86 83 82 78 78 69
98 98 98 97 93 89 90 89 88 87 85 82 77 74 73 72 70 69 69 69 68 69 70 71 72 73 73 74 75 77 79 79 80 80 81 83 87 88 91 89 86 83 78 70
97 97 98 97 94 93 92 91 88 84 80 77 75 74 74 74 74 75 74 73 74 75 76 77 78 79 79 80 82 83 83 84 84 84 86 88 92 92 93 92 90 85 77 72
99 98 97 95 93 92 91 88 86 85 82 80 78 77 76 77 78 79 80 80 81 82 82 83 84 83 84 85 87 88 88 87 87 89 92 95 95 94 92 92 89 84 78 71
103 101 100 98 98 96 93 90 88 86 85 83 82 81 81 82 83 84 86 87 88 88 88 88 88 89 91 91 91 91 91 93 93 95 97 99 98 97 95 90 86 83 78 70
Wind_Direction
260 263 264 263 270 279 273 270 274 274 279 284 284 292 292 295 298 301 300 304 306 307 310 307 311 312 310 309 308 307 301 290 289 292 294 296 292 298 302 303 308 310 314 313
262 261 260 268 272 276 272 272 274 274 280 283 283 291 291 293 296 297 299 302 304 307 305 312 309 311 309 305 303 300 302 297 298 294 295 294 293 297 302 304 307 310 312 304
258 258 261 268 272 272 270 271 273 278 279 280 285 287 290 291 291 294 297 300 300 302 308 306 312 313 309 308 307 301 300 300 295 299 294 288 289 297 302 310 309 307 307 300
254 258 261 263 267 269 271 271 275 277 279 279 281 286 288 288 290 292 294 300 297 302 307 314 314 315 312 311 311 306 302 295 289 289 292 295 299 298 303 307 309 314 308 299
249 252 255 259 261 266 267 272 271 271 275 278 284 284 285 285 287 288 293 294 292 301 309 310 313 316 318 323 329 328 324 317 311 302 299 298 301 303 307 309 310 314 312 305
249 254 257 258 259 259 262 264 267 271 274 278 282 279 282 283 286 284 286 285 289 298 306 304 306 313 321 329 329 331 335 337 325 317 308 307 304 307 308 307 309 312 309 304
249 252 253 257 261 261 261 263 265 270 271 273 277 278 279 281 280 282 281 284 290 299 303 300 302 310 317 322 328 330 331 332 332 331 319 315 315 311 309 308 309 309 306 305
251 253 254 254 256 257 260 263 266 265 267 271 275 272 274 277 275 277 278 281 287 293 297 299 300 305 311 318 325 328 329 330 331 334 332 321 319 313 310 307 304 306 306 304
245 247 249 250 252 254 259 264 263 265 267 270 270 266 271 274 272 271 275 279 289 290 292 295 298 304 309 310 315 324 326 332 330 324 327 333 328 318 306 305 303 303 304 302
244 247 249 250 253 258 259 259 262 263 263 264 267 266 268 268 267 270 273 279 285 289 292 293 296 299 300 304 308 315 321 327 326 326 326 330 333 329 327 322 315 308 301 297
242 244 247 249 254 254 253 254 258 259 260 261 262 265 264 262 264 268 274 279 284 286 290 290 292 292 294 299 304 310 315 318 322 321 321 323 325 326 322 326 325 317 310 304
237 238 244 247 247 251 254 257 258 256 252 253 258 264 266 265 266 270 275 280 281 284 285 285 287 289 290 293 301 306 311 312 317 317 317 317 321 320 322 320 321 321 315 313
239 243 245 248 251 254 253 247 246 247 249 253 255 256 264 269 273 275 275 273 276 278 280 283 285 286 289 292 295 299 302 308 311 313 314 315 319 318 317 320 323 323 320 313
236 237 239 242 241 240 240 242 245 249 254 253 256 257 263 269 270 272 272 273 274 275 277 278 279 281 285 289 291 293 296 303 306 308 310 313 313 314 315 317 321 319 320 317
235 236 236 236 240 242 242 244 246 249 252 255 255 258 262 269 273 273 274 275 274 271 273 275 277 279 283 285 288 292 295 301 302 303 307 309 308 309 312 314 316 318 317 316
233 235 236 235 238 242 242 243 248 252 256 260 260 262 265 269 273 276 277 277 274 269 269 272 274 275 278 283 289 293 297 300 300 302 304 307 307 306 311 310 314 316 313 315
232 233 234 236 238 240 244 248 251 253 255 259 265 266 269 272 274 274 275 277 274 269 267 268 270 275 280 284 289 293 295 297 299 300 303 307 308 307 311 313 312 313 314 312
232 233 233 236 237 241 243 250 253 256 258 261 263 266 268 273 274 272 271 272 271 270 269 269 272 275 280 285 288 289 292 295 295 296 302 305 305 307 309 312 313 312 312 311
233 235 235 237 238 241 242 246 254 257 260 262 265 267 268 271 271 269 267 266 267 269 269 271 272 275 279 282 285 290 292 295 295 297 300 302 303 304 308 312 311 312 312 311
235 236 238 238 239 241 243 247 252 258 261 266 267 267 267 268 271 265 263 263 263 263 265 268 272 275 279 282 285 286 287 290 293 295 297 300 303 306 309 310 311 310 312 310
234 237 240 241 243 244 244 248 252 256 264 266 266 267 270 272 268 264 261 261 262 264 266 269 272 276 279 282 285 287 289 291 293 295 298 301 302 307 309 310 310 309 309 306
233 237 241 243 244 245 249 251 254 257 260 263 265 268 267 264 263 264 264 264 263 265 268 271 274 276 278 279 282 285 288 291 294 296 298 301 303 305 305 307 308 308 307 304
233 236 240 243 246 248 250 252 254 257 260 262 265 264 262 262 264 264 263 265 267 269 271 273 276 278 279 280 283 286 288 291 293 295 298 300 302 303 304 307 306 305 304 301
235 237 239 242 244 246 249 251 252 254 256 257 257 258 259 261 262 264 265 266 267 270 273 274 276 278 280 282 283 286 288 290 293 295 296 297 301 302 303 303 303 303 302 298
236 238 240 242 244 246 247 250 252 253 254 255 257 259 261 263 265 266 267 268 268 269 271 274 277 279 280 281 284 287 289 290 292 293 295 298 299 299 299 299 299 298 296 295
236 239 241 243 244 246 248 250 252 255 257 259 260 261 261 263 264 265 267 269 271 272 274 276 277 279 282 283 284 286 288 289 290 292 294 295 296 297 297 296 295 294 293 291
Height
10760 10766 10763 10755 10768 10776 10781 10781 10780 10776 10781 10781 10783 10784 10780 10776 10772 10767 10762 10760 10758 10752 10747 10743 10740 10734 10730 10723 10721 10717 10714 10715 10714 10713 10712 10709 10708 10705 10702 10699 10696 10692 10688 10686
10750 10755 10741 10751 10759 10764 10767 10770 10768 10768 10772 10770 10773 10777 10775 10769 10763 10758 10755 10753 10748 10745 10741 10736 10732 10727 10721 10717 10715 10713 10710 10708 10706 10704 10702 10701 10699 10696 10693 10691 10686 10683 10679 10675
10737 10733 10737 10745 10748 10751 10754 10757 10755 10760 10763 10761 10762 10765 10768 10763 10755 10753 10749 10747 10741 10737 10734 10732 10728 10724 10718 10712 10709 10706 10703 10700 10699 10696 10693 10692 10690 10687 10683 10680 10676 10674 10670 10667
10726 10722 10727 10734 10736 10737 10744 10743 10748 10751 10750 10752 10754 10753 10755 10752 10748 10745 10742 10741 10733 10730 10726 10724 10721 10717 10712 10708 10704 10699 10696 10693 10692 10689 10685 10682 10680 10678 10674 10671 10669 10667 10663 10659
10715 10708 10718 10724 10720 10729 10730 10736 10738 10740 10739 10742 10748 10747 10744 10742 10741 10737 10735 10734 10729 10726 10719 10717 10715 10711 10707 10702 10698 10694 10690 10686 10683 10680 10677 10674 10672 10669 10667 10664 10662 10660 10656 10652
10699 10700 10712 10708 10709 10720 10718 10725 10728 10730 10729 10731 10738 10735 10733 10733 10731 10729 10728 10727 10724 10720 10714 10711 10710 10707 10702 10697 10693 10690 10686 10682 10678 10674 10670 10668 10665 10662 10659 10657 10656 10653 10649 10646
10682 10688 10694 10694 10699 10705 10708 10713 10719 10720 10719 10721 10728 10725 10721 10725 10722 10722 10721 10719 10717 10714 10708 10705 10705 10703 10698 10694 10690 10687 10683 10679 10673 10668 10663 10661 10659 10656 10653 10651 10649 10647 10645 10640
10670 10678 10681 10680 10683 10690 10696 10704 10710 10707 10707 10711 10717 10714 10712 10716 10715 10712 10712 10711 10708 10707 10703 10698 10697 10695 10693 10690 10687 10684 10679 10674 10669 10664 10659 10655 10652 10649 10645 10643 10641 10640 10638 10635
10654 10662 10664 10666 10667 10676 10688 10693 10692 10698 10697 10699 10705 10701 10702 10705 10706 10704 10703 10702 10700 10699 10697 10692 10689 10686 10684 10683 10681 10679 10675 10671 10665 10659 10654 10650 10647 10643 10640 10636 10633 10631 10630 10628
10638 10644 10650 10652 10658 10670 10677 10676 10680 10686 10687 10686 10690 10693 10693 10694 10697 10696 10694 10694 10692 10690 10688 10683 10680 10679 10675 10674 10673 10672 10669 10665 10661 10654 10647 10642 10640 10637 10633 10629 10626 10623 10622 10619
10624 10631 10632 10641 10651 10655 10660 10664 10668 10673 10678 10677 10678 10683 10679 10684 10687 10687 10685 10684 10683 10680 10679 10675 10671 10670 10669 10666 10665 10663 10661 10658 10656 10649 10643 10637 10632 10629 10627 10624 10620 10616 10612 10608
10611 10611 10617 10629 10634 10640 10646 10653 10657 10661 10665 10666 10668 10672 10663 10671 10677 10677 10677 10673 10672 10670 10668 10665 10663 10658 10661 10659 10656 10655 10652 10650 10647 10644 10638 10631 10627 10621 10616 10615 10612 10609 10603 10598
10594 10603 10607 10611 10627 10634 10636 10639 10641 10645 10650 10658 10658 10665 10652 10655 10664 10667 10667 10665 10660 10658 10656 10655 10654 10650 10647 10649 10649 10647 10645 10643 10640 10636 10632 10625 10619 10614 10608 10606 10602 10599 10595 10590
10570 10586 10597 10606 10611 10610 10615 10620 10626 10631 10641 10644 10652 10650 10648 10644 10651 10654 10652 10651 10650 10647 10645 10643 10642 10640 10639 10637 10638 10637 10635 10634 10632 10629 10624 10620 10613 10607 10599 10594 10593 10588 10584 10578
10555 10572 10584 10593 10591 10596 10605 10611 10615 10621 10626 10629 10635 10637 10636 10636 10636 10638 10640 10640 10638 10635 10633 10632 10631 10629 10629 10627 10626 10626 10623 10623 10620 10618 10615 10611 10606 10600 10595 10586 10581 10577 10572 10568
10542 10558 10567 10577 10579 10579 10588 10598 10602 10609 10613 10615 10619 10622 10624 10624 10625 10624 10622 10624 10624 10622 10622 10620 10619 10618 10617 10616 10614 10614 10610 10609 10606 10604 10603 10599 10596 10591 10585 10577 10572 10567 10562 10557
10526 10541 10551 10561 10563 10564 10569 10591 10591 10594 10598 10602 10605 10607 10608 10611 10612 10612 10610 10605 10608 10609 10608 10607 10607 10605 10604 10602 10602 10601 10600 10597 10591 10588 10588 10587 10583 10580 10575 10568 10561 10555 10549 10544
10511 10525 10535 10542 10547 10549 10577 10572 10575 10579 10583 10588 10590 10592 10594 10596 10597 10598 10598 10595 10593 10592 10593 10594 10596 10592 10590 10589 10588 10587 10587 10586 10581 10574 10572 10572 10569 10565 10562 10556 10550 10543 10536 10529
10499 10508 10518 10524 10536 10545 10557 10561 10559 10560 10564 10570 10573 10576 10580 10582 10583 10584 10583 10582 10581 10581 10580 10580 10581 10579 10578 10576 10573 10572 10572 10571 10566 10559 10558 10557 10555 10551 10548 10543 10538 10530 10521 10514
10484 10492 10497 10510 10517 10532 10543 10544 10544 10542 10544 10557 10556 10557 10562 10567 10569 10569 10568 10568 10567 10567 10567 10567 10568 10566 10564 10562 10561 10559 10559 10557 10554 10547 10543 10541 10539 10534 10530 10526 10520 10513 10505 10499
10466 10474 10479 10490 10498 10515 10523 10526 10529 10525 10544 10532 10535 10539 10543 10547 10549 10551 10552 10552 10552 10553 10554 10553 10554 10554 10552 10548 10544 10541 10540 10539 10537 10533 10528 10523 10519 10514 10510 10506 10502 10497 10489 10484
10451 10455 10462 10471 10481 10496 10502 10505 10510 10517 10514 10516 10521 10523 10525 10526 10527 10531 10534 10535 10536 10536 10536 10536 10537 10538 10536 10534 10531 10528 10523 10520 10518 10515 10508 10505 10501 10495 10491 10490 10484 10479 10473 10467
10434 10439 10446 10454 10466 10478 10480 10486 10490 10495 10499 10502 10506 10506 10505 10506 10509 10512 10514 10517 10517 10517 10518 10518 10518 10518 10516 10515 10513 10510 10506 10502 10499 10497 10493 10488 10482 10478 10469 10464 10463 10459 10454 10448
10414 10421 10427 10433 10447 10455 10458 10464 10470 10473 10478 10483 10486 10487 10490 10490 10490 10491 10494 10497 10499 10500 10499 10499 10498 10497 10496 10494 10491 10490 10487 10484 10480 10477 10474 10470 10465 10459 10452 10446 10441 10437 10433 10429
10393 10401 10408 10417 10427 10432 10437 10442 10448 10453 10458 10462 10466 10470 10473 10474 10475 10475 10474 10475 10477 10478 10479 10478 10477 10477 10476 10475 10471 10467 10465 10463 10461 10457 10451 10447 10446 10441 10435 10429 10421 10417 10413 10410
10374 10382 10389 10397 10403 10409 10417 10424 10430 10434 10438 10443 10448 10452 10455 10456 10456 10455 10454 10454 10454 10454 10455 10456 10456 10454 10452 10450 10448 10446 10443 10440 10437 10434 10431 10427 10421 10416 10411 10408 10403 10397 10392 10391